Kake, AK

5:39 AM AKDT on April 27, 2017 (GMT -0800)
Kake

Weather History for PAFE - May, 2013

Change the Weather History Date:

Sunday, May 12, 2013

  Actual Average Record
Temperature  
Mean Temperature 50 °F -  
Max Temperature 53 °F 50 °F 71 °F (2016)
Min Temperature 46 °F 36 °F 33 °F (2011)
Degree Days  
Heating Degree Days 16    
Moisture  
Dew Point 46 °F    
Average Humidity 87    
Maximum Humidity 93    
Minimum Humidity 77    
Precipitation  
Precipitation 0.10 in - - ()
Sea Level Pressure  
Sea Level Pressure 29.65 in    
Wind  
Wind Speed 4 mph (SE)    
Max Wind Speed 13 mph    
Max Gust Speed 17 mph    
Visibility 10 miles    
Events      
Averages and records for this station are not official NWS values.
T = Trace of Precipitation, MM = Missing Value Source: NWS Daily Summary

Daily Weather History Graph

Daily Weather History Graph

Search for Another Location

Airport or City:

Trip Planner

Search our weather history database for the weather conditions in past years. The results will help you decide how hot, cold, wet, or windy it might be!

Date:

Astronomy

May. 12, 2013 Rise Set
Actual Time 4:42 AM AKDT 9:02 PM AKDT
Civil Twilight 3:51 AM AKDT 9:54 PM AKDT
Nautical Twilight 2:31 AM AKDT 11:16 PM AKDT
Astronomical Twilight Sun does not set Sun does not set
Moon 6:36 AM AKDT (5/12) 11:40 PM AKDT (5/12)
Length of Visible Light 18h 02m
Length of Day
16h 20m
Waxing Crescent, 7% of the Moon is Illuminated
May 12
Waxing Crescent
May 17
First Quarter
May 24
Full
May 31
Last Quarter
Jun 8
New

Hourly Weather History & Observations

Time (AKDT) Temp. Windchill Dew Point Humidity Pressure Visibility Wind Dir Wind Speed Gust Speed Precip Events Conditions
12:16 AM 48.2 °F - 44.6 °F 87% 29.69 in 10.0 mi ESE 3.5 mph - N/A   Overcast
12:36 AM 48.2 °F - 44.6 °F 87% 29.69 in 10.0 mi Calm Calm - N/A   Overcast
12:56 AM 48.2 °F - 44.6 °F 87% 29.69 in 10.0 mi Calm Calm - N/A   Overcast
1:36 AM 48.2 °F - 46.4 °F 93% 29.67 in 10.0 mi Calm Calm - N/A   Overcast
1:56 AM 48.2 °F - 44.6 °F 87% 29.67 in 10.0 mi Calm Calm - N/A   Overcast
2:16 AM 48.2 °F - 44.6 °F 87% 29.66 in 10.0 mi Calm Calm - N/A   Overcast
2:36 AM 46.4 °F - 44.6 °F 93% 29.66 in 10.0 mi Calm Calm - N/A   Mostly Cloudy
2:56 AM 46.4 °F 44.3 °F 44.6 °F 93% 29.65 in 10.0 mi East 4.6 mph - N/A   Overcast
3:16 AM 46.4 °F 44.3 °F 44.6 °F 93% 29.64 in 10.0 mi East 4.6 mph - N/A   Overcast
3:36 AM 46.4 °F - 42.8 °F 87% 29.64 in 10.0 mi Calm Calm - N/A   Mostly Cloudy
3:56 AM 46.4 °F 43.5 °F 42.8 °F 87% 29.63 in 10.0 mi East 5.8 mph - N/A   Mostly Cloudy
4:16 AM 46.4 °F 44.3 °F 44.6 °F 93% 29.63 in 10.0 mi East 4.6 mph - N/A   Overcast
4:36 AM 46.4 °F 45.2 °F 44.6 °F 93% 29.63 in 10.0 mi ENE 3.5 mph - N/A   Overcast
4:56 AM 46.4 °F 45.2 °F 44.6 °F 93% 29.62 in 10.0 mi ENE 3.5 mph - N/A   Overcast
5:16 AM 46.4 °F - 44.6 °F 93% 29.62 in 10.0 mi Calm Calm - N/A   Overcast
5:36 AM 46.4 °F 44.3 °F 44.6 °F 93% 29.62 in 10.0 mi East 4.6 mph - N/A   Overcast
5:56 AM 48.2 °F - 44.6 °F 87% 29.62 in 10.0 mi East 3.5 mph - N/A   Overcast
6:16 AM 48.2 °F - 44.6 °F 87% 29.62 in 10.0 mi Calm Calm - N/A   Overcast
6:36 AM 48.2 °F - 44.6 °F 87% 29.62 in 10.0 mi Calm Calm - N/A   Overcast
6:56 AM 48.2 °F - 46.4 °F 93% 29.62 in 10.0 mi Calm Calm - N/A   Overcast
7:16 AM 50.0 °F - 46.4 °F 87% 29.63 in 10.0 mi Calm Calm - N/A   Overcast
7:36 AM 48.2 °F - 46.4 °F 93% 29.63 in 10.0 mi Calm Calm - N/A   Overcast
7:56 AM 48.2 °F - 46.4 °F 93% 29.63 in 9.0 mi Calm Calm - N/A   Overcast
8:16 AM 48.2 °F - 46.4 °F 93% 29.63 in 4.0 mi South 3.5 mph - N/A   Overcast
8:36 AM 48.2 °F - 46.4 °F 93% 29.64 in 3.0 mi Calm Calm - N/A   Overcast
8:56 AM 48.2 °F - 46.4 °F 93% 29.64 in 2.5 mi SSE 4.6 mph - N/A   Overcast
9:16 AM 50.0 °F - 46.4 °F 87% 29.65 in 10.0 mi SE 6.9 mph - N/A   Overcast
9:36 AM 50.0 °F - 46.4 °F 87% 29.65 in 10.0 mi SE 4.6 mph - 0.01 in   Overcast
9:56 AM 51.8 °F - 48.2 °F 88% 29.65 in 10.0 mi SE 8.1 mph - 0.01 in   Mostly Cloudy
10:16 AM 51.8 °F - 48.2 °F 88% 29.66 in 10.0 mi SE 8.1 mph - N/A   Overcast
10:36 AM 51.8 °F - 48.2 °F 88% 29.66 in 10.0 mi SE 6.9 mph - 0.01 in   Overcast
10:56 AM 51.8 °F - 48.2 °F 88% 29.66 in 10.0 mi SSE 6.9 mph - 0.01 in   Mostly Cloudy
11:16 AM 51.8 °F - 48.2 °F 88% 29.67 in 10.0 mi SE 8.1 mph - 0.01 in   Overcast
11:36 AM 51.8 °F - 48.2 °F 88% 29.67 in 10.0 mi SSE 6.9 mph - 0.01 in   Mostly Cloudy
11:56 AM 53.6 °F - 50.0 °F 88% 29.67 in 10.0 mi SSE 10.4 mph - 0.01 in   Mostly Cloudy
12:16 PM 53.6 °F - 48.2 °F 82% 29.67 in 10.0 mi SSE 6.9 mph - N/A   Overcast
12:36 PM 53.6 °F - 48.2 °F 82% 29.67 in 10.0 mi SSW 5.8 mph - N/A   Overcast
12:56 PM 53.6 °F - 48.2 °F 82% 29.68 in 6.0 mi South 6.9 mph 17.3 mph N/A   Mostly Cloudy
1:16 PM 53.6 °F - 48.2 °F 82% 29.67 in 10.0 mi SSE 5.8 mph - N/A   Overcast
1:36 PM 53.6 °F - 48.2 °F 82% 29.68 in 10.0 mi South 5.8 mph - N/A   Overcast
1:56 PM 53.6 °F - 48.2 °F 82% 29.68 in 10.0 mi SSW 5.8 mph - N/A   Mostly Cloudy
2:16 PM 53.6 °F - 46.4 °F 77% 29.68 in 10.0 mi SSE 8.1 mph - N/A   Overcast
2:36 PM 51.8 °F - 46.4 °F 82% 29.68 in 9.0 mi SSE 6.9 mph - 0.01 in   Mostly Cloudy
2:56 PM 51.8 °F - 46.4 °F 82% 29.68 in 10.0 mi SE 9.2 mph - 0.02 in   Overcast
3:16 PM 51.8 °F - 46.4 °F 82% 29.68 in 10.0 mi SE 10.4 mph - N/A   Mostly Cloudy
3:36 PM 51.8 °F - 46.4 °F 82% 29.68 in 10.0 mi SE 12.7 mph - N/A   Mostly Cloudy
3:56 PM 51.8 °F - 46.4 °F 82% 29.67 in 6.0 mi ESE 6.9 mph - 0.01 in   Overcast
4:16 PM 51.8 °F - 46.4 °F 82% 29.67 in 10.0 mi SE 6.9 mph - N/A   Overcast
4:36 PM 51.8 °F - 46.4 °F 82% 29.66 in 10.0 mi SE 9.2 mph - N/A   Overcast
4:56 PM 51.8 °F - 46.4 °F 82% 29.66 in 10.0 mi SSE 6.9 mph - N/A   Mostly Cloudy
5:16 PM 51.8 °F - 46.4 °F 82% 29.66 in 10.0 mi SSE 6.9 mph - N/A   Mostly Cloudy
5:36 PM 51.8 °F - 46.4 °F 82% 29.65 in 10.0 mi SSE 4.6 mph - N/A   Overcast
5:56 PM 51.8 °F - 46.4 °F 82% 29.65 in 10.0 mi SSE 6.9 mph - N/A   Overcast
6:16 PM 51.8 °F - 46.4 °F 82% 29.65 in 10.0 mi SE 5.8 mph - N/A   Overcast
6:36 PM 51.8 °F - 46.4 °F 82% 29.65 in 10.0 mi SE 4.6 mph - N/A   Overcast
6:56 PM 51.8 °F - 46.4 °F 82% 29.64 in 10.0 mi SE 4.6 mph - N/A   Overcast
7:16 PM 51.8 °F - 46.4 °F 82% 29.64 in 10.0 mi SE 5.8 mph - N/A   Overcast
7:36 PM 51.8 °F - 46.4 °F 82% 29.64 in 10.0 mi SE 5.8 mph - N/A   Overcast
7:56 PM 51.8 °F - 46.4 °F 82% 29.64 in 10.0 mi SE 4.6 mph - N/A   Overcast
8:16 PM 51.8 °F - 46.4 °F 82% 29.64 in 10.0 mi ESE 9.2 mph - N/A   Overcast
8:36 PM 50.0 °F - 46.4 °F 87% 29.64 in 10.0 mi ESE 6.9 mph - N/A   Overcast
8:56 PM 50.0 °F - 46.4 °F 87% 29.64 in 10.0 mi SE 5.8 mph - N/A   Overcast
9:16 PM 50.0 °F - 44.6 °F 82% 29.65 in 9.0 mi ESE 5.8 mph - 0.01 in   Overcast
9:36 PM 48.2 °F - 46.4 °F 93% 29.65 in 10.0 mi ESE 6.9 mph - 0.01 in   Overcast
9:56 PM 48.2 °F - 46.4 °F 93% 29.65 in 10.0 mi ESE 6.9 mph - 0.01 in   Overcast
10:16 PM 48.2 °F - 46.4 °F 93% 29.65 in 10.0 mi ESE 4.6 mph - N/A   Overcast
10:36 PM 48.2 °F - 46.4 °F 93% 29.65 in 10.0 mi ESE 8.1 mph - N/A   Overcast
10:56 PM 48.2 °F - 44.6 °F 87% 29.64 in 10.0 mi ESE 5.8 mph - N/A   Overcast
11:16 PM 48.2 °F - 46.4 °F 93% 29.64 in 9.0 mi ESE 5.8 mph - 0.01 in   Overcast
11:36 PM 48.2 °F - 46.4 °F 93% 29.64 in 10.0 mi SE 6.9 mph - 0.02 in   Overcast
11:56 PM 48.2 °F - 46.4 °F 93% 29.64 in 10.0 mi SE 3.5 mph - 0.03 in   Overcast